Weather History for Lincoln, NE

Change the Weather History Date:

Tuesday, July 2, 2013

  Actual Average Record
Temperature  
Mean Temperature 69 °F 77 °F  
Max Temperature 83 °F 88 °F 108 °F (1990)
Min Temperature 55 °F 65 °F 50 °F (1945)
Degree Days  
Heating Degree Days 0 0  
Month to date heating degree days 0 0  
Since 1 June heating degree days 20 16  
Since 1 July heating degree days 0 0  
Cooling Degree Days 4 12  
Month to date cooling degree days 5 24  
Year to date cooling degree days 323 345  
Since 1 June cooling degree days 236 266  
Growing Degree Days 18 (Base 50)    
Moisture  
Dew Point 55 °F    
Average Humidity 64    
Maximum Humidity 93    
Minimum Humidity 34    
Precipitation  
Precipitation T in 0.12 in 1.24 in (1908)
Month to date precipitation T 0.24  
Year to date precipitation 18.34 14.93  
Snow  
Snow 0.00 in 0.00 in - ()
Month to date snowfall 0.0 0.0  
Since 1 July snowfall 0.0 0.0  
Snow Depth 0.00 in    
Sea Level Pressure  
Sea Level Pressure 30.12 in    
Wind  
Wind Speed 3 mph (NNW)    
Max Wind Speed 18 mph    
Max Gust Speed 21 mph    
Visibility 8 miles    
Events Rain    
T = Trace of Precipitation, MM = Missing Value Source: NWS Daily Summary

Daily Weather History Graph

Daily Weather History Graph

Search for Another Location

Airport:

Trip Planner

Search our weather history database for the weather conditions in past years. The results will help you decide how hot, cold, wet, or windy it might be!

Date:

Astronomy

Jul. 02, 2013 Rise Set
Actual Time 5:59 AM CDT 9:02 PM CDT
Civil Twilight 5:26 AM CDT 9:35 PM CDT
Nautical Twilight 4:44 AM CDT 10:17 PM CDT
Astronomical Twilight 3:54 AM CDT 11:07 PM CDT
Moon 2:04 AM CDT (7/2) 4:16 PM CDT (7/2)
Length of Visible Light 16h 09m
Length of Day
15h 02m
Waning Crescent, 26% of the Moon is Illuminated
Jul 2
Waning Crescent
Jul 8
New
Jul 15
First Quarter
Jul 22
Full
Jul 29
Last Quarter

Hourly Weather History & Observations

Time (CDT) Temp. Heat Index Dew Point Humidity Pressure Visibility Wind Dir Wind Speed Gust Speed Precip Events Conditions
12:54 AM 61.0 °F - 55.0 °F 81% 30.14 in 9.0 mi North 5.8 mph - N/A   Clear
1:54 AM 57.0 °F - 53.1 °F 87% 30.15 in 8.0 mi North 4.6 mph - N/A   Clear
2:54 AM 59.0 °F - 54.0 °F 83% 30.14 in 8.0 mi NNW 5.8 mph - N/A   Clear
3:54 AM 57.9 °F - 54.0 °F 87% 30.14 in 8.0 mi NNW 5.8 mph - N/A   Clear
4:54 AM 55.9 °F - 53.1 °F 90% 30.15 in 7.0 mi North 4.6 mph - N/A   Mostly Cloudy
5:54 AM 57.9 °F - 53.1 °F 84% 30.15 in 8.0 mi North 3.5 mph - N/A   Mostly Cloudy
6:54 AM 57.0 °F - 53.1 °F 87% 30.17 in 6.0 mi North 4.6 mph - N/A   Scattered Clouds
7:54 AM 61.0 °F - 55.9 °F 83% 30.17 in 6.0 mi Calm Calm - N/A   Haze
9:54 AM 73.9 °F - 54.0 °F 50% 30.16 in 10.0 mi Variable 3.5 mph - N/A   Clear
10:54 AM 77.0 °F - 54.0 °F 45% 30.16 in 10.0 mi SW 5.8 mph - N/A   Clear
11:54 AM 79.0 °F - 53.1 °F 40% 30.16 in 10.0 mi Calm Calm - N/A   Partly Cloudy
12:54 PM 81.0 °F - 51.1 °F 35% 30.14 in 10.0 mi Variable 3.5 mph - N/A   Mostly Cloudy
1:54 PM 81.0 °F - 51.1 °F 35% 30.13 in 9.0 mi WSW 3.5 mph - N/A   Partly Cloudy
2:54 PM 82.0 °F - 51.1 °F 34% 30.10 in 9.0 mi Calm Calm - N/A   Clear
3:54 PM 80.1 °F 80.0 °F 54.0 °F 40% 30.10 in 8.0 mi Calm Calm - N/A   Mostly Cloudy
4:54 PM 75.9 °F - 54.0 °F 46% 30.10 in 8.0 mi NNE 3.5 mph - N/A   Clear
5:54 PM 72.0 °F - 57.9 °F 61% 30.09 in 6.0 mi NNW 8.1 mph - 0.00 in Rain Light Rain
6:54 PM 73.9 °F - 57.9 °F 57% 30.09 in 8.0 mi ENE 3.5 mph - 0.00 in   Partly Cloudy
7:54 PM 75.0 °F - 57.9 °F 55% 30.07 in 8.0 mi WSW 8.1 mph - N/A   Clear
8:54 PM 72.0 °F - 57.0 °F 59% 30.06 in 8.0 mi Calm Calm - N/A   Clear
9:54 PM 70.0 °F - 57.0 °F 63% 30.07 in 7.0 mi Calm Calm - N/A   Clear
10:54 PM 68.0 °F - 57.0 °F 68% 30.07 in 8.0 mi Calm Calm - N/A   Clear
11:54 PM 64.9 °F - 59.0 °F 81% 30.08 in 8.0 mi Calm Calm - N/A   Clear